[[{"header":{"parameterUnit":"m.s-1","parameterCategory":1,"la1":30.2991,"la2":30.254,"lo1":-89.0895,"lo2":-89.0444,"dy":0.0017,"dx":0.0017,"nx":28,"ny":28,"refTime":"2023-10-05T21:00:00:Z","depth":0,"parameterNumber":2,"parameterNumberName":"U-component_of_WINDS"},"data":[0,0,0,0,0,0,0,0,0,0,0,0,0,0,0,0,0,0,0,0,0,0,0,0,0,0,0,0,0,0,0,0,0,0,0,0,0,0,0,0,0,0,0,0,0,0,0,0,0,0,0,0,0,0,0,0,0,0,1.0216,1.0218,0,1.0351,1.0353,1.0354,1.0394,1.0393,1.0392,1.0392,1.0526,1.0531,1.0535,0,0,0,0,0,0,0,0,0,0,0,0,0,0.999,0.9994,1.0216,1.0218,1.022,1.0351,1.0353,1.0355,1.0394,1.0393,1.0392,1.0391,1.0525,1.053,1.0535,0,0,0,0,0,0,0,0,0,0,0,0,0,1.0103,0.9995,1.0216,1.0255,1.026,1.0351,1.0353,1.0355,1.0394,1.0393,1.0392,1.0391,1.0523,1.053,1.0536,1.0596,0,0,1.0555,1.0558,0,0,0,0,0,0,0,0,1.0096,1.0111,1.0248,1.0253,1.0258,1.0355,1.0323,1.0436,1.0394,1.0343,1.0392,1.039,1.047,1.0481,1.0508,1.0603,1.0609,1.0556,1.056,1.0563,1.0564,0,0,0,0,0,0,0,1.0089,1.0106,1.027,1.0249,1.0256,1.0265,1.028,1.0344,1.0411,1.0347,1.0351,1.0366,1.0473,1.0502,1.0512,1.0611,1.0556,1.0561,1.0565,1.0568,1.0762,1.0764,0,0,0,0,0,0,1.0074,1.0099,1.0265,1.0274,1.0173,1.027,1.0287,1.0325,1.041,1.0422,1.0367,1.0368,1.0492,1.0504,1.0517,1.0593,1.0562,1.0568,1.0572,1.0761,1.0763,1.0764,0,0,0,0,0,0,1.0069,1.0089,1.026,1.0187,1.021,1.0275,1.0317,1.0328,1.0357,1.0425,1.0437,1.0385,1.0491,1.0508,1.0577,1.0598,1.0571,1.0577,1.0759,1.0761,1.0763,1.0747,0,0,0,0,0,0,1.0063,1.0087,1.0111,1.0187,1.0213,1.0318,1.0319,1.0331,1.0369,1.0371,1.0445,1.0456,1.0492,1.0567,1.0583,1.0607,1.0582,1.0758,1.076,1.0763,1.0746,1.0748,1.075,0,0,0,0,0,1.0055,1.01,1.0112,1.0132,1.0245,1.0319,1.0334,1.0375,1.037,1.0395,1.0438,1.0454,1.0594,1.0574,1.0592,1.0618,1.0756,1.076,1.0762,1.0745,1.0748,1.075,0,0,0,0,0,0,1.0023,1.0111,1.0125,1.0197,1.0251,1.0326,1.0358,1.0377,1.0432,1.0432,1.0479,1.0496,1.0561,1.0597,1.0573,1.0682,1.0675,1.0682,1.0656,1.0659,1.0661,1.0651,1.0587,0,0,0,0,0,1.0024,1.0078,1.0152,1.0208,1.0235,1.0292,1.0326,1.0353,1.041,1.0433,1.0481,1.0535,1.0592,1.0627,1.0683,1.0752,1.0768,1.0779,1.0781,1.0782,1.0787,1.0826,1.0832,1.0774,1.0774,1.0774,0,0,1.0028,1.0082,1.0113,1.0203,1.0248,1.0302,1.031,1.0367,1.0408,1.0441,1.0509,1.0547,1.0611,1.068,1.0713,1.0711,1.0807,1.0786,1.0787,1.0791,1.083,1.0835,1.084,1.0776,1.0776,1.0775,0,0,1.0061,1.0108,1.0161,1.0206,1.0275,1.0313,1.0325,1.0399,1.0425,1.0495,1.0521,1.057,1.0666,1.071,1.0745,1.0797,1.0814,1.0814,1.0825,1.0863,1.0867,1.0871,1.0889,1.0896,1.0819,1.0819,1.0819,0,1.0056,1.014,1.0185,1.0241,1.028,1.0314,1.0367,1.0408,1.0491,1.0517,1.0514,1.0636,1.0681,1.0762,1.0775,1.0802,1.0817,1.0805,1.0863,1.0868,1.0872,1.089,1.0897,1.0819,1.0819,1.0819,1.0819,0,1.013,1.0188,1.0222,1.0302,1.0345,1.0399,1.0452,1.049,1.0513,1.0551,1.0622,1.0678,1.0746,1.0767,1.079,1.0851,1.0848,1.0854,1.0848,1.0877,1.0894,1.0901,1.0818,1.0818,1.0818,1.0818,0,0,1.0146,1.0252,1.0264,1.0301,1.038,1.0425,1.0481,1.0548,1.058,1.0636,1.0683,1.0765,1.0771,1.0811,1.084,1.0873,1.0911,1.0875,1.0877,1.0879,1.098,1.0975,1.0982,1.0922,1.0924,1.0925,1.0975,0,1.0189,1.0291,1.0334,1.0416,1.047,1.0504,1.0553,1.0606,1.0643,1.0694,1.0735,1.0791,1.0796,1.082,1.0855,1.0899,1.0931,1.0896,1.0966,1.0968,1.0948,1.0991,1.0985,1.1029,1.0982,1.0983,1.0984,0,1.0253,1.0311,1.0398,1.0472,1.0496,1.0539,1.0605,1.0653,1.0714,1.0739,1.0785,1.0812,1.0871,1.0863,1.0945,1.092,1.0952,1.0978,1.098,1.0988,1.0977,1.0999,1.1045,1.1051,1.0996,1.0995,1.0994,0,1.0255,1.0355,1.0421,1.0452,1.0539,1.0568,1.0606,1.0666,1.0705,1.0762,1.0787,1.085,1.0884,1.0932,1.0976,1.0966,1.1053,1.1049,1.1075,1.1074,1.1091,1.1089,1.1141,1.1112,1.1112,1.1112,1.1112,0,1.0298,1.035,1.0423,1.0463,1.0522,1.0571,1.0629,1.0668,1.0722,1.077,1.0804,1.0848,1.0903,1.0954,1.0989,1.1051,1.1066,1.1087,1.1096,1.1084,1.1081,1.1104,1.1102,1.1114,1.1114,1.1113,1.1113,0,1.0309,1.036,1.0434,1.0512,1.0532,1.0573,1.0639,1.0679,1.0718,1.0779,1.0796,1.0858,1.092,1.0968,1.1049,1.1072,1.1138,1.1147,1.1117,1.1121,1.1144,1.1141,1.1213,1.1224,1.1188,1.1188,1.1189,0,1.0333,1.0374,1.0457,1.0492,1.053,1.0586,1.0626,1.0675,1.0715,1.0789,1.082,1.0885,1.0939,1.1036,1.1088,1.115,1.116,1.1181,1.117,1.1157,1.116,1.1157,1.1161,1.1182,1.1182,1.1182,1.1182,0,1.0369,1.0393,1.0449,1.0515,1.0562,1.0616,1.067,1.0697,1.0757,1.08,1.0864,1.0907,1.099,1.1053,1.1121,1.1159,1.118,1.1186,1.1195,1.1183,1.1164,1.1174,1.112,1.1184,1.1184,1.1184,1.1183,1.1183,1.0387,1.0426,1.049,1.0552,1.0599,1.0649,1.0691,1.0737,1.0792,1.0864,1.089,1.0957,1.1018,1.1111,1.1149,1.1201,1.1202,1.1216,1.1219,1.1221,1.122,1.1156,1.1214,1.1214,1.1214,1.1214,1.1214,0,1.0425,1.0469,1.0525,1.0601,1.065,1.0668,1.073,1.0769,1.0827,1.0883,1.0937,1.1011,1.1073,1.113,1.1195,1.1226,1.1237,1.1241,1.1239,1.1247,1.1215,1.1201,1.1231,1.1231,1.1231,1.1231,1.1231,1.1231,1.045,1.0516,1.0548,1.0637,1.0681,1.0747,1.078,1.0827,1.0872,1.0954,1.1006,1.1044,1.11,1.1169,1.1227,1.1242,1.1264,1.1265,1.1282,1.1251,1.1249,1.1247,1.1233,1.127,1.127,1.131,1.131,1.131]},{"header":{"parameterUnit":"m.s-1","parameterCategory":1,"la1":30.2991,"la2":30.254,"lo1":-89.0895,"lo2":-89.0444,"dy":0.0017,"dx":0.0017,"nx":28,"ny":28,"refTime":"2023-10-05T21:00:00:Z","depth":0,"parameterNumber":3,"parameterNumberName":"V-component_of_WINDS"},"data":[0,0,0,0,0,0,0,0,0,0,0,0,0,0,0,0,0,0,0,0,0,0,0,0,0,0,0,0,0,0,0,0,0,0,0,0,0,0,0,0,0,0,0,0,0,0,0,0,0,0,0,0,0,0,0,0,0,0,0.2388,0.2388,0,0.2388,0.2388,0.2388,0.2449,0.2451,0.2452,0.2454,0.2453,0.2451,0.245,0,0,0,0,0,0,0,0,0,0,0,0,0,0.2436,0.2434,0.2388,0.2388,0.2388,0.2388,0.2388,0.2388,0.2449,0.2451,0.2453,0.2454,0.2453,0.2451,0.2449,0,0,0,0,0,0,0,0,0,0,0,0,0,0.2423,0.2434,0.2388,0.2418,0.2421,0.2388,0.2388,0.2388,0.2448,0.2451,0.2453,0.2455,0.2454,0.2451,0.2449,0.2388,0,0,0.2442,0.2441,0,0,0,0,0,0,0,0,0.2424,0.2422,0.2413,0.2416,0.2419,0.2421,0.2405,0.2388,0.2448,0.2438,0.2454,0.2457,0.244,0.2439,0.2434,0.2387,0.2387,0.2442,0.2441,0.244,0.2439,0,0,0,0,0,0,0,0.2425,0.2422,0.2388,0.2413,0.2416,0.2431,0.2431,0.2402,0.2425,0.2439,0.2443,0.2443,0.2442,0.2436,0.2434,0.2387,0.2442,0.244,0.2439,0.2438,0.2288,0.2285,0,0,0,0,0,0,0.2422,0.2422,0.2388,0.2388,0.2427,0.2428,0.2429,0.2418,0.2426,0.243,0.2441,0.2445,0.2439,0.2437,0.2434,0.2361,0.244,0.2438,0.2436,0.229,0.2287,0.2284,0,0,0,0,0,0,0.2423,0.2418,0.2388,0.2406,0.2403,0.2424,0.2412,0.2417,0.2411,0.2427,0.2432,0.243,0.244,0.2438,0.2398,0.2361,0.2437,0.2435,0.2293,0.2289,0.2286,0.2213,0,0,0,0,0,0,0.2424,0.2418,0.2396,0.2405,0.2402,0.2352,0.241,0.2415,0.2407,0.2413,0.2419,0.2422,0.2442,0.2401,0.2396,0.236,0.2433,0.2297,0.2292,0.2287,0.2219,0.2207,0.2198,0,0,0,0,0,0.2425,0.2375,0.2394,0.239,0.2375,0.235,0.2348,0.2373,0.2404,0.238,0.2391,0.2422,0.2367,0.2397,0.2391,0.2354,0.2299,0.2293,0.2287,0.2224,0.221,0.2198,0,0,0,0,0,0,0.2361,0.2377,0.2398,0.235,0.2348,0.236,0.2332,0.2358,0.2346,0.2353,0.2383,0.2384,0.2339,0.2343,0.2376,0.2293,0.2338,0.2331,0.2292,0.2279,0.2268,0.2267,0.2431,0,0,0,0,0,0.2341,0.232,0.2336,0.2292,0.229,0.2311,0.2301,0.232,0.2319,0.2318,0.2326,0.2323,0.2305,0.2293,0.2277,0.2221,0.2221,0.2192,0.2181,0.2172,0.2165,0.2133,0.2119,0.2265,0.2265,0.2265,0,0,0.23,0.2306,0.2291,0.2279,0.2279,0.2256,0.231,0.2283,0.2266,0.2314,0.2277,0.2282,0.2281,0.2232,0.2211,0.2234,0.2125,0.2165,0.2157,0.2155,0.2125,0.2111,0.2099,0.2261,0.2262,0.2262,0,0,0.2212,0.2216,0.2178,0.2178,0.2178,0.2192,0.2183,0.2191,0.2196,0.216,0.2195,0.2175,0.2144,0.214,0.2135,0.2044,0.2071,0.2038,0.1981,0.1949,0.1938,0.1928,0.1893,0.188,0.2032,0.2031,0.2031,0,0.216,0.2127,0.2156,0.2126,0.2118,0.2162,0.2123,0.2121,0.2116,0.211,0.2136,0.2096,0.2099,0.2048,0.2026,0.2021,0.201,0.2037,0.1937,0.1928,0.1919,0.1886,0.1873,0.2027,0.2028,0.2028,0.2028,0,0.2062,0.2038,0.2008,0.2001,0.1991,0.1957,0.1979,0.1965,0.1985,0.1996,0.1957,0.1961,0.1946,0.1936,0.1956,0.1888,0.1902,0.1932,0.1978,0.19,0.1869,0.1857,0.2021,0.2023,0.2024,0.2025,0,0,0.1933,0.1942,0.193,0.1927,0.193,0.1912,0.1879,0.1865,0.1851,0.1846,0.1818,0.179,0.1817,0.1811,0.1831,0.1803,0.1728,0.1837,0.1837,0.1814,0.165,0.1626,0.1611,0.1747,0.1744,0.1743,0.165,0,0.1846,0.179,0.1815,0.1756,0.1733,0.1774,0.1745,0.1743,0.1753,0.1734,0.1744,0.1723,0.1762,0.1758,0.1733,0.1742,0.1695,0.175,0.1719,0.1717,0.1715,0.1595,0.157,0.1481,0.1638,0.1636,0.1635,0,0.1737,0.1726,0.1665,0.1671,0.1662,0.1636,0.1623,0.1606,0.1604,0.1612,0.1604,0.163,0.1597,0.1643,0.1597,0.1633,0.1623,0.1625,0.1622,0.1618,0.167,0.1586,0.1454,0.144,0.1617,0.1618,0.1619,0,0.1645,0.1616,0.1576,0.1572,0.1578,0.1558,0.1559,0.156,0.1549,0.1538,0.1531,0.1517,0.1508,0.1496,0.1516,0.1549,0.1465,0.1515,0.147,0.1469,0.1449,0.1449,0.1311,0.1445,0.1446,0.1446,0.1446,0,0.1544,0.1504,0.1534,0.1509,0.1465,0.1493,0.1449,0.1455,0.1455,0.1431,0.1466,0.1442,0.1471,0.145,0.1465,0.1423,0.142,0.1424,0.1428,0.1419,0.1418,0.1411,0.1417,0.1442,0.1443,0.1444,0.1445,0,0.1433,0.1452,0.141,0.1419,0.142,0.1387,0.1394,0.137,0.1382,0.1351,0.1345,0.1363,0.1339,0.1359,0.1336,0.1346,0.1289,0.1304,0.129,0.1293,0.1246,0.1249,0.1096,0.1077,0.1226,0.1224,0.1223,0,0.1366,0.1337,0.1342,0.1328,0.1327,0.1305,0.1293,0.132,0.1307,0.1301,0.1278,0.1257,0.1242,0.1202,0.1212,0.1195,0.1207,0.1155,0.1205,0.1196,0.1203,0.1204,0.12,0.1144,0.1142,0.1141,0.114,0,0.1244,0.1255,0.1237,0.1222,0.1208,0.1198,0.119,0.1177,0.1204,0.1187,0.1163,0.1151,0.1128,0.1106,0.1092,0.1092,0.1119,0.1124,0.1112,0.1102,0.1094,0.1095,0.126,0.1127,0.1128,0.1129,0.113,0.113,0.1152,0.1126,0.1126,0.1105,0.1102,0.1093,0.1071,0.1079,0.106,0.1043,0.106,0.103,0.1028,0.1011,0.1008,0.0985,0.1007,0.099,0.0986,0.0981,0.0973,0.11,0.0983,0.0983,0.0984,0.0984,0.0984,0,0.103,0.1031,0.1011,0.0999,0.0982,0.101,0.1003,0.0986,0.096,0.0956,0.094,0.0911,0.089,0.0899,0.088,0.0859,0.0871,0.0853,0.0854,0.0853,0.0956,0.0967,0.0844,0.0844,0.0844,0.0844,0.0844,0.0844,0.0964,0.0921,0.0931,0.0887,0.0889,0.0861,0.0854,0.0846,0.0842,0.0809,0.0791,0.0797,0.0797,0.0779,0.076,0.0763,0.0753,0.073,0.0737,0.0832,0.0846,0.0859,0.087,0.0729,0.0728,0.0636,0.0636,0.0635]}]]